FENGYUN 1C DEB

Satellite information

Favourite Embed

Satellite Type and Status

DEBRISIN ORBIT

Key statistics

Satellite FENGYUN 1C DEB at a glance.

Uptime

9615

Days in orbit

Revolutions

≈ 14.0

Per day

Orbit

SSO

Sun Synchronous Orbit

Inclination

98.7

Latest

Satellite identification and parameters

Extended collection of information and parameters for FENGYUN 1C DEB.

Object identification

Identified? True

Debris? True

Object name: FENGYUN 1C DEB

International designator: 1999-025BMN

Object number (NORAD): 31256

Object ID (CCSDS): 31256

Country: PEOPLES REPUBLIC OF CHINA (PRC)

Current information (Y/N): Y

RCS size: SMALL

Orbital parameters

Period: 102.761 minutes

Inclination: 98.6925 deg

SMA: 7267.422 km

Apoapsis: 1119.226 km

Periapsis: 659.348 km

RAAN: 97.6554 deg

Eccentricy: 0.03163971

Argument of periapsis: 37.9353 deg

Mean anomaly: 324.3651 deg

Mean motion: 14.01303431 rev/day

Mean motion (dot): 0.00014017 rev/day2

B* drag term: 0.0060163983 1/REarth

Two-line elements (TLE)

Creation date: Sept. 2, 2025, 11:42 p.m.

Reference frame: TEME

Reference center: EARTH

Epoch: Sept. 2, 2025, 10:46 a.m. UTC

TLE line 0: 0 FENGYUN 1C DEB

TLE line 1: 1 31256U 99025BMN 25245.44909648 .00014017 00000-0 60164-2 0 9996

TLE line 2: 2 31256 98.6925 97.6554 0316397 37.9353 324.3651 14.01303431635629

Live tracking on map

Real-time ground track for satellite FENGYUN 1C DEB.

In-orbit conjunctions

A list of the most updated potential collisions computed for object FENGYUN 1C DEB.

Target Orbit TCA Probability of collision Miss distance Type
CZ-4 DEB SSO 2024-11-10 11:32:43 0.0001567252 884.0 (m) DEBRIS
FENGYUN 1C DEB SSO 2024-09-27 12:39:27 0.0003408495 922.0 (m) DEBRIS

Associated space launch

Chinese polar orbiting meteorological satellite

FENGYUN 1C DEB was lifted into orbit during the mission ‘Long March 4B | Feng Yun 1C’, on board a Long March 4B space rocket.

The launch took place on May 10, 1999, 1:33 a.m. from Launch Complex 7.

For more information about the launch, click the button.

Launch to space Long March 4B | Feng Yun 1C
Long March 4B | Feng Yun 1C

Agency: N/A

Status: Launch Successful

Launch date: May 10, 1999, 1:33 a.m. UTC

Rocket: Long March 4B

Launch pad: Launch Complex 7

Location: Taiyuan Satellite Launch Center, People's Republic of China

...

Latest news about this satellite

There are no fresh news available about this satellite. Check back as we update our databases every day.


Newsletter sign-up

Weekly statistics, charts and insights to help you stay on top of the space industry.